Regional Weather Roundup
Issued by NWS Pendleton, OR

Home | Current Version | Previous Version | Text Only | Print | Product List | Glossary On
Versions: 1 2 3 4 5 6 7 8 9 10 11 12 13 14 15 16 17 18 19 20 21 22 23 24 25 26 27 28 29 30 31 32 33 34 35 36 37 38 39 40 41 42 43 44 45 46 47 48 49 50
000
ASUS46 KPDT 300725
RWRPDT
PENDLETON REGIONAL WEATHER ROUNDUP
NATIONAL WEATHER SERVICE PENDLETON OREGON
1200 AM PDT MON MAY 30 2016

NOTE: FAIR INDICATES FEW OR NO CLOUDS BELOW 12,000 FEET WITH NO
SIGNIFICANT WEATHER AND/OR OBSTRUCTIONS TO VISIBILITY.

# INDICATES UNOFFICIAL STATION AND DATA

WAZ520-300810-
EAST SLOPES OF WASHINGTON CASCADES

CITY            SKY/WX      TMP DP  RH  WIND    PRES   REMARKS
#CLE ELUM HS    N/A         47  38  71  N3      30.14S
#CLE ELUM 2NW   N/A         46  38  73  SW2     N/A
#GLENWOOD       N/A         40  37  89  CALM    30.13R
#MANASTASH CYN  N/A         42  33  70  CALM    30.14R
#NELSON 3SW     N/A         41  36  82  CALM    30.36R
#NILE           N/A         46  39  76  CALM    29.42R
#RONALD 2NW     N/A         44  N/A N/A N2      30.06R
#TEANAWAY 4NE   N/A         44  37  76  W1      N/A
#TROUT LAKE 1NE N/A         52  41  66  CALM    30.14S
#TROUT LAKE 1E  N/A         52  41  66  CALM    30.12S
$$

WAZ521-300810-
SIMCOE HIGHLANDS

CITY            SKY/WX      TMP DP  RH  WIND    PRES   REMARKS
#CENTERVILLE 1SWN/A         48  39  71  W7      30.10R
#GOLDENDALE 1NE N/A         52  29  41  SW1     N/A
#GOLDENDALE 4W  N/A         52  46  80  W1      30.18R
#GOODNOE HILLS  N/A         56  41  57  W8      30.06R
#LYLE 6NE       N/A         53  44  71  SW7     30.11R
$$

WAZ026-300810-
KITTITAS VALLEY

CITY            SKY/WX      TMP DP  RH  WIND    PRES   REMARKS
ELLENSBURG AP   CLEAR       52  39  61  NW17G28 30.15R
#ELLENSBURG CWU N/A         51  40  66  N15     30.08R
#ELLENSBURG 3NE N/A         49  40  71  N5      30.16R
#ELLENSBURG     N/A         54  43  66  NW8     N/A
#ELLENSBURG 13S N/A         56  38  51  NE6     N/A
#KITTITAS 4N    N/A         48  36  63  NW8     30.18R
#KITTITAS 3S    N/A         50  40  68  NW6     30.12R
#THORP 6N       N/A         47  39  74  W15     30.16R WCI 41
$$

WAZ027-300810-
YAKIMA VALLEY

CITY            SKY/WX      TMP DP  RH  WIND    PRES   REMARKS
SUNNYSIDE AP    CLEAR       56  36  47  W12     30.14R
YAKIMA AIRPORT  CLEAR       60  36  41  N13     30.15R
YAKIMA-VAGABOND CLEAR       52  35  52  N7      30.13S
#DONALD 2NE     N/A         56  15  20  W3      28.99R
#GRANDVIEW      N/A         55  37  51  CALM    30.14R
#MABTON         N/A         58  40  51  W3      30.14R
#NACHES 2SW     N/A         54  40  59  W12     30.13F
#TERRACE HTS    N/A         55  37  51  NW2     30.09R
#TOPPENISH      N/A         58  38  47  CALM    30.04R
#WEST VALLEY    N/A         55  38  53  CALM    30.11R
#W YAKIMA       N/A         55  39  55  W2      30.13R
#WHITE SWAN 5E  N/A         48  39  71  S2      30.13R
#WILEY CITY 3W  N/A         47  34  60  CALM    30.12R
$$

WAZ028-300810-
LOWER COLUMBIA BASIN...WASHINGTON

CITY            SKY/WX      TMP DP  RH  WIND    PRES   REMARKS
PASCO           MOCLDY      57  38  49  W7      30.13R
PROSSER AWOS    N/A         55  39  55  SW7     30.18R
RICHLAND AWOS   CLEAR       61  37  41  W13     30.14R
#BENTON CITY    N/A         58  36  44  W7      30.02R
#CONNELL 5N     N/A         50  38  63  CALM    30.09R
#CONNELL 5NW    N/A         51  39  63  NW5     30.04R
#ELTOPIA 6NW    N/A         54  40  59  CALM    29.09R
#KAHLOTUS       N/A         55  39  55  N17     30.06R
#KENNEWICK 3S   N/A         58  36  44  CALM    30.12R
#PATERSON       N/A         58  39  49  CALM    30.12R
#SAGEMOOR 2W    N/A         55  39  55  W7      29.95R
#TOUCHET 2S     N/A         58  42  55  NW1     30.10R
#WEST PASCO     N/A         60  39  46  NW2     30.19R
$$

WAZ029-300810-
FOOTHILLS OF THE BLUES...WASHINGTON

CITY            SKY/WX      TMP DP  RH  WIND    PRES   REMARKS
WALLA WALLA AP  CLOUDY      58  39  49  S7      30.13R
#CLYDE 6NW      N/A         58  38  47  W7      30.07R
#DAYTON SCHOOL  N/A         58  34  40  S1      30.12R
#LOWDEN 2SE     N/A         59  41  51  W2      30.10R
#PLEASANT VIEW 1N/A         55  37  51  W5      30.10R
#PRESCOTT       N/A         58  43  57  CALM    30.09R
#SUDBURY        N/A         62  N/A N/A CALM    N/A
#WHITMAN COLLEGEN/A         59  40  49  SW3     30.16R
#WAITSBURG 5S   N/A         54  42  64  S2      30.19R
#WAITSBURG 8N   N/A         54  14  20  S6      29.94S
#WALLA WALLA U  N/A         60  41  49  CALM    30.12R
#WHITMAN MISSIONN/A         58  42  55  CALM    30.13R
$$

WAZ030-300810-
BLUE MOUNTAINS...WASHINGTON

CITY            SKY/WX      TMP DP  RH  WIND    PRES   REMARKS
#DIXIE 5SE      N/A         51  38  61  SW7     30.08R
$$

ORZ009-041-WAZ024-300810-
COLUMBIA RIVER GORGE

CITY            SKY/WX      TMP DP  RH  WIND    PRES   REMARKS
HOOD RIVER AP   PTCLDY      55  43  64  CALM    30.19R
THE DALLES AP   PTCLDY      61  41  48  W8      30.15R
#ARLINGTON AIRPON/A         56  43  62  CALM    30.14R
#CELILO DOT     N/A         61  41  48  SW6     N/A
#LYLE           N/A         61  47  60  NW10    30.16R
#MARYHILL 2W    N/A         57  46  67  W2      N/A
#MOSIER 1S      N/A         58  32  37  W6      30.15S
#MURDOCK        N/A         61  46  58  NW8     30.12R
#RUFUS DOT      N/A         63  42  46  W15     N/A

$$

ORZ510-300810-
NORTH CENTRAL OREGON

CITY            SKY/WX      TMP DP  RH  WIND    PRES   REMARKS
#ANTELOPE       N/A         48  38  68  CALM    30.01R
#CHENOWITH 1W   N/A         53  42  66  W22     N/A
#COW CYN RST AREN/A         49  N/A N/A NW5     N/A
#DUFUR 9E       N/A         51  41  68  W15     30.19R
#GRASS VALLEY   N/A         50  41  71  N2      N/A
#GRASS VALLEY 1SN/A         52  41  66  NW5     30.10R
#KENT DOT       N/A         46  32  58  N8      N/A
#MAUPIN SCHOOL  N/A         56  43  62  CALM    30.19R
#MORO SCHOOL    N/A         54  46  74  W6      30.16R
#SHANIKO 4NW    N/A         46  -58  1  W5      30.18R
#TYGH VALLEY 2NEN/A         54  42  64  N1      30.14R
#WAPANITIA AIRPON/A         48  41  77  W1      30.14S
#WASCO DOT      N/A         56  42  59  W8      N/A
#WASCO AIRPORT  N/A         54  41  61  W10     N/A
#WASCO 5NE      N/A         53  42  66  W1      30.12R
$$

ORZ511-300810-
CENTRAL OREGON

CITY            SKY/WX      TMP DP  RH  WIND    PRES   REMARKS
BEND AIRPORT    CLEAR       48  37  65  CALM    30.19R
MADRAS AIRPORT  CLEAR       55  43  64  N9      30.20S
PRINEVILLE AP   CLEAR       48  37  65  N8      30.18R
REDMOND AIRPORT CLEAR       50  36  58  CALM    30.18R
#ASHWOOD SCHOOL N/A         46  37  71  CALM    30.14R
#BEND 1SW       N/A         45  38  76  N1      N/A
#BEND-AWBREY    N/A         49  39  68  CALM    30.10R
#BEND-KIM LN    N/A         48  39  71  CALM    30.16R
#CULVER         N/A         49  39  68  E2      30.09R
#CULVER 8W      N/A         45  38  76  CALM    30.16R
#LAKE BILLY CHINN/A         51  N/A N/A SE5     30.20R
#MADRAS 4S      N/A         50  11  20  CALM    30.23R
#POWELL BUTTE 3EN/A         47  38  71  S1      N/A
#POWELL BUTTE   N/A         47  36  65  SE2     30.04S
#PRINEVILLE 3N  N/A         49  39  68  N7      30.11R

$$


ORZ509-300810-
EAST SLOPES OF OREGON CASCADES

CITY            SKY/WX      TMP DP  RH  WIND    PRES   REMARKS
SISTERS AWOS    N/A         52  39  61  CALM    30.15R
#BLUE BOX PASS  N/A         42  N/A N/A NW2     N/A
#CAMP SHERMAN   N/A         43  36  76  CALM    30.19R
#LA PINE DOT    N/A         49  38  66  W8      N/A
#LA PINE 4NW    N/A         44  37  76  CALM    30.14S
#LAVA BUTTE DOT N/A         42  34  73  CALM    N/A
#SISTERS AIRPOR N/A         50  44  80  CALM    30.17S
#SISTERS ODOT   N/A         50  N/A N/A CALM    N/A
#SISTERS 1NW    N/A         51  39  63  N7      N/A
#SISTERS 3N     N/A         48  34  58  CALM    30.14S
#SUNRIVER       N/A         44  38  79  CALM    30.12R
#TUMALO 3W      N/A         47  38  71  NE2     29.98R
#WANOGA BUTTE D N/A         42  29  60  NW1     N/A

$$

ORZ044-300810-
LOWER COLUMBIA BASIN...OREGON

CITY            SKY/WX      TMP DP  RH  WIND    PRES   REMARKS
HERMISTON       CLEAR       57  41  55  W10     30.13R
#BOARDMAN SCHOOLN/A         61  39  44  CALM    30.14R
#ECHO 8SW       N/A         53  42  66  SW1     30.16R
#I-84 EX 198 DOTN/A         55  40  57  E8      N/A
#UMATILLA SCHOOLN/A         58  46  64  CALM    30.19R
#UMATILLA       N/A         60  37  42  CALM    30.07R
$$

ORZ507-300810-
NORTHERN FOOTHILLS OF THE BLUES

CITY            SKY/WX      TMP DP  RH  WIND    PRES   REMARKS
PENDLETON AIRPT MOCLDY      55  39  55  W10     30.14R
#ADAMS 3WNW     N/A         53  42  66  CALM    30.13R
#ATHENA         N/A         56  38  51  CALM    30.14R
#CAYUSE         N/A         56  45  66  CALM    30.11R
#HELIX SCHOOL   N/A         54  38  55  CALM    30.12R
#HELIX 3N       N/A         52  38  59  N7      30.11R
#HELIX 6SW      N/A         51  42  71  CALM    30.14R
#HOLDMAN 5SE    N/A         47  41  79  CALM    30.14R
#HOLDMAN 6E     N/A         53  41  64  CALM    29.93R
#M-FREEWATER 5SEN/A         58  38  47  CALM    30.14R
#PENDLETON DNTN N/A         59  35  40  CALM    30.16S
#PDT AQUATIC CTRN/A         58  34  40  CALM    30.16R
#PDT SUNRIDGE   N/A         57  41  55  CALM    30.16R
#PENDLETON 7NW  N/A         55  41  59  CALM    31.97S
#PILOT ROCK 1S  N/A         55  37  51  CALM    30.15R
#PILOT ROCK     N/A         55  39  55  W6      30.17R
#TUTUILLA       N/A         54  43  66  CALM    30.14R
#UMAPINE 2E     N/A         58  43  57  CALM    30.11R
#WESTON SCHOOL  N/A         56  33  42  CALM    30.03R

$$

ORZ508-300810-
SOUTHERN FOOTHILLS OF THE BLUES

CITY            SKY/WX      TMP DP  RH  WIND    PRES   REMARKS
LEXINGTON       CLEAR       52  39  61  E3      30.20R
#AJAX           N/A         53  35  50  S5      27.91R
#CONDON 5W      N/A         46  36  68  NW7     30.15R
#FOSSIL SCHOOL  N/A         48  38  68  CALM    30.11S
#HEPPNER EOC    N/A         50  39  66  CALM    30.08R
#HEPPNER 4NE    N/A         49  39  68  W3      30.12R
#LEXINGTON 2SE  N/A         49  40  71  CALM    30.13R
#OLEX 4N        N/A         54  43  66  SW5     30.14R
#RUGGS 5NE      N/A         47  36  65  SW2     30.30F
#RUGGS 2SW      N/A         48  37  65  CALM    30.15R

$$

ORZ502-503-300810-
BLUE MOUNTAINS

CITY            SKY/WX      TMP DP  RH  WIND    PRES   REMARKS
MEACHAM         CLOUDY      49  36  61  CALM    30.17R
#BATTLE MTN DOT N/A         44  41  89  N1      N/A
#CUTSFORTH PARK N/A         39  35  85  CALM    29.95F
#HARDMAN 10S    N/A         61  34  36  N5      30.22R
#HEPPNER 15SE   N/A         42  37  82  CALM    25.69S
#LADD CYN SMT   N/A         49  31  50  NW8     N/A
#LADD CREEK ODOTN/A         51  39  63  NE2     N/A
#LONG CREEK HS  N/A         46  40  79  CALM    N/A
#N POWDER DOT   N/A         51  37  59  N9      N/A
#PIKES PEAK     N/A         48  35  60  SW12    27.99S WCI 43
#TOLLGATE       N/A         42  34  73  CALM    30.01S
#TROY SCHOOL    N/A         58  40  51  SW1     29.90R
#UKIAH          N/A         46  38  73  CALM    30.04R
#WESTON 4E      N/A         50  36  58  CALM    30.06R
$$

ORZ505-300810-
JOHN DAY BASIN

CITY            SKY/WX      TMP DP  RH  WIND    PRES   REMARKS
JOHN DAY        N/A         N/A N/A N/A MISG    N/A
#DAYVILLE SCHOOLN/A         57  36  45  CALM    30.12R
#MITCHELL       N/A         50  39  66  CALM    30.32S
#MITCHELL 8NW   N/A         48  35  60  CALM    30.30R
#MONUMENT HS    N/A         55  36  49  NE1     30.11R
#MT. VERNON 5SE N/A         49  37  63  CALM    30.11R
#SPRAY SCHOOL   N/A         53  N/A N/A CALM    N/A
#WINLOCK        N/A         N/A N/A N/A N5      30.13R
$$

ORZ506-300810-
OCHOCO AND JOHN DAY HIGHLANDS

CITY            SKY/WX      TMP DP  RH  WIND    PRES   REMARKS
#BUCK CREEK DOT N/A         50  37  61  W8      N/A
#HORSE RIDGE DO N/A         47  36  65  NW2     N/A
#KEYES SMT DOT  N/A         44  34  68  N5      N/A
#PAULINA SCHOOL N/A         51  35  54  NW7     N/A
#PINE MTN OBS   N/A         38  34  85  NW9     N/A
#PRAIRIE CITY   N/A         52  39  61  W1      30.28R
#SENECA         N/A         47  N/A N/A CALM    N/A
#SENECA 9NW     N/A         44  37  76  CALM    30.06R
$$

ORZ049-300810-
GRANDE RONDE VALLEY

CITY            SKY/WX      TMP DP  RH  WIND    PRES   REMARKS
LA GRANDE       MOCLDY      52  34  50  NW8     30.15R
#COVE           N/A         47  42  83  CALM    30.17R
#COVE SCHOOL    N/A         47  40  76  CALM    30.16R
#COVE 6NW       N/A         47  38  71  CALM    30.04R
#ELGIN 3N       N/A         52  35  52  CALM    30.11R
#ELGIN 1E       N/A         54  39  57  CALM    N/A
#ISLAND CITY 4N N/A         49  44  83  CALM    30.24S
#LADD CYN DOT   N/A         53  38  57  N6      N/A
#UNION 1S       N/A         54  40  59  NW2     30.00R
$$

ORZ050-300810-
WALLOWA COUNTY

CITY            SKY/WX      TMP DP  RH  WIND    PRES   REMARKS
#ENTERPRISE AP  N/A         49  29  46  CALM    30.06R
#ENTERPRISE HS  N/A         49  38  66  NW3     30.14R
#IMNAHA SCHOOL  N/A         57  41  55  SW2     30.09R
#IMNAHA 10S     N/A         56  40  55  CALM    30.10R
#JOSEPH 3N      N/A         47  33  58  NW9     30.14R
#JOSEPH 3W      N/A         N/A N/A N/A CALM    29.98R
#LOSTINE 3SE    N/A         50  37  61  CALM    30.13R
#MT HOWARD 8000 N/A         34  29  82  NW2     30.21S
#PROMISE 1S     N/A         50  37  61  E2      30.15S
#WALLOWA SCHOOL N/A         53  39  59  CALM    30.10R



$$



USA.gov is the U.S. government's official web portal to all federal, state and local government web resources and services.